Theta_e
291 292 293 294 295 296 297 298 299 300 300 300 300 296 295 297 298 297 297 297 297 298 298 300 300 301 302 302 303 304 304 304 304 304 303 303 303 308 311 311 311 310 311 309 308 311 310 311 313 315 310 310 308 309
291 292 293 295 296 297 298 298 299 299 300 300 299 299 295 295 297 297 297 298 297 297 298 299 300 300 300 303 303 305 305 304 304 303 304 305 304 305 310 309 311 311 310 308 309 309 310 311 309 309 308 307 307 307
291 292 294 296 296 297 298 299 299 299 299 300 300 300 299 295 296 297 297 298 298 297 297 298 298 300 301 302 303 303 302 303 306 306 305 306 306 307 307 308 310 311 311 312 310 312 312 309 308 307 306 306 305 305
292 293 295 296 297 297 299 299 299 299 300 300 300 300 300 297 296 297 297 298 297 298 297 298 298 300 300 300 303 304 304 304 306 306 305 304 307 308 309 310 308 310 309 312 312 311 308 305 304 304 304 305 304 303
293 295 296 297 298 299 299 299 298 299 299 300 300 300 300 299 296 297 297 297 298 298 299 301 300 301 304 302 303 304 305 306 305 304 303 306 307 307 308 308 307 306 305 307 307 301 306 303 301 302 302 303 303 302
295 296 297 299 299 299 299 299 300 299 299 299 299 300 300 299 298 298 298 297 297 297 299 300 302 302 302 304 303 304 305 305 305 305 304 306 307 308 308 307 301 301 301 300 300 301 302 302 300 300 300 301 300 300
296 297 298 299 299 299 299 299 300 300 300 300 300 300 301 300 299 298 299 299 298 298 300 300 302 303 304 304 305 305 305 305 304 303 303 305 306 306 305 305 298 297 298 297 299 300 301 300 299 297 297 298 297 296
297 297 299 300 299 299 300 300 300 301 301 300 299 300 301 300 299 299 301 301 299 299 300 301 302 304 304 305 305 305 305 304 303 303 304 306 306 305 300 296 294 293 295 294 296 297 298 298 296 294 295 295 293 292
297 299 300 299 299 300 300 300 301 302 301 300 300 301 301 299 299 299 300 300 299 300 300 300 300 305 305 305 305 305 304 302 303 302 304 305 302 297 296 294 292 291 291 291 292 292 293 293 293 293 292 290 289 288
297 299 299 299 299 300 300 300 300 300 301 300 300 300 298 299 299 299 300 299 299 300 300 302 303 304 304 304 303 304 303 303 305 303 305 298 294 293 292 291 290 289 289 289 289 289 289 289 290 290 288 288 287 286
298 299 299 300 299 299 300 301 300 300 300 300 300 299 300 300 300 299 298 300 299 300 301 302 303 302 303 303 302 304 303 303 302 303 305 301 296 293 290 288 287 287 287 286 286 286 286 286 287 286 285 285 284 283
298 299 300 300 299 300 300 300 300 300 300 300 299 299 299 300 300 301 298 300 299 300 301 299 303 303 302 302 302 303 303 303 303 304 304 295 291 289 288 287 285 285 284 284 283 283 282 283 283 283 282 280 280 280
299 299 296 299 299 300 300 300 299 299 300 300 299 298 299 298 300 299 300 299 301 299 300 301 302 302 301 300 301 303 303 303 302 300 293 290 288 287 286 285 284 283 282 281 280 280 280 280 280 281 280 279 279 279
296 296 295 299 299 299 299 299 298 298 298 297 297 289 293 296 294 294 295 296 293 295 297 299 300 300 300 300 300 303 300 299 302 297 289 288 286 285 284 284 282 281 281 280 279 278 278 278 278 278 278 279 279 279
295 294 295 299 299 299 299 298 299 299 295 293 294 294 292 293 292 291 293 293 292 293 295 298 300 300 298 296 299 298 299 294 293 288 287 285 284 283 283 282 281 280 280 279 278 278 277 277 277 277 277 277 278 278
296 294 294 299 299 299 299 298 300 297 291 290 289 293 292 292 290 289 290 291 291 293 295 296 299 297 296 296 294 290 296 290 288 287 284 284 283 282 281 281 280 280 279 278 277 277 277 277 277 277 277 277 277 277
298 294 292 293 295 297 298 299 294 290 291 290 289 288 290 290 289 289 289 289 292 293 297 297 297 297 296 294 291 290 288 286 285 283 283 283 282 281 281 281 280 279 279 278 278 277 276 276 276 277 277 276 276 276
298 295 293 293 294 295 295 293 291 290 289 289 288 288 288 288 288 288 289 289 292 293 293 293 292 290 290 290 288 286 284 284 283 283 282 282 282 281 280 280 280 279 279 279 279 278 277 277 277 276 276 276 276 276
297 295 295 295 295 294 293 292 290 290 289 289 288 288 288 288 287 287 288 288 288 290 289 288 285 286 286 287 285 285 284 283 282 281 281 281 281 280 280 280 280 281 280 279 279 279 278 278 277 277 276 276 275 275
293 294 295 295 295 293 293 292 291 290 290 288 288 288 288 288 285 284 285 285 285 284 284 283 283 282 283 283 284 284 284 283 282 282 282 282 282 281 281 280 280 280 279 279 278 278 278 278 277 277 276 275 275 274
294 295 295 294 293 293 293 291 291 290 290 290 289 289 287 285 284 283 283 283 283 284 282 281 281 280 281 282 282 283 283 284 284 283 282 282 281 281 281 282 281 280 280 279 279 278 277 276 276 276 276 275 274 273
295 296 293 293 292 292 292 292 291 291 291 291 291 290 289 288 286 284 282 281 281 280 281 281 280 280 280 280 281 281 281 282 281 281 281 281 281 280 280 280 280 279 279 278 277 277 276 275 275 274 274 273 272 272
294 294 293 293 292 292 292 293 293 293 291 291 291 290 288 287 286 284 283 281 280 280 280 279 279 279 279 279 280 280 280 280 280 279 279 279 279 279 279 279 278 278 277 276 276 276 275 275 274 273 273 272 271 271
291 291 292 292 291 291 291 291 292 292 291 290 288 286 285 288 286 284 281 282 281 281 281 281 280 280 279 279 279 280 280 279 279 279 279 278 277 277 277 277 277 276 275 275 275 274 274 273 273 272 272 272 271 271
291 287 291 287 292 288 286 287 289 289 286 287 284 284 284 288 282 280 280 282 281 281 281 281 281 280 279 278 278 278 278 278 277 277 277 277 276 276 276 275 275 275 275 274 274 273 272 272 272 272 271 271 271 271
282 285 287 288 289 288 289 287 287 286 283 281 282 287 288 281 279 281 283 281 280 281 281 281 280 280 279 279 277 277 277 277 277 277 276 276 277 277 276 276 275 274 273 273 273 272 272 271 271 271 271 270 270 270
282 282 286 287 290 290 287 289 288 285 283 282 282 282 280 277 277 281 281 281 280 279 279 279 279 278 278 277 276 275 274 276 277 276 274 273 273 274 275 275 274 274 272 272 272 272 271 271 270 270 270 270 269 269
284 286 281 285 285 286 281 281 281 281 281 285 284 278 277 277 279 281 279 279 279 278 278 278 277 277 276 275 275 274 274 274 274 274 274 274 274 273 272 271 271 271 271 270 271 271 271 270 270 270 269 269 269 269
284 282 282 276 282 281 281 279 280 281 282 284 277 276 280 279 278 278 278 278 277 277 276 276 276 276 275 275 274 273 273 274 274 273 274 274 272 272 271 270 270 270 270 270 269 269 270 270 270 269 269 269 269 269
283 283 281 280 275 278 282 281 280 280 281 280 277 277 278 277 277 277 277 277 277 277 276 276 276 275 275 275 275 273 272 272 272 273 273 273 272 271 270 270 270 269 269 268 268 269 269 268 268 268 268 268 268 268
285 283 281 280 279 280 280 280 280 279 279 278 278 276 276 276 276 277 277 277 277 276 276 275 274 275 274 274 274 274 274 273 271 271 271 271 271 270 270 269 269 268 269 268 268 268 268 268 268 268 267 267 267 267
284 282 280 276 279 280 281 283 283 282 282 280 279 278 278 278 276 276 276 275 276 276 276 275 275 275 274 273 272 272 272 271 271 271 270 270 270 270 269 269 269 269 269 268 268 268 268 268 267 268 267 267 267 267
281 280 280 280 279 280 282 283 283 283 282 281 281 281 280 280 277 275 275 275 276 276 276 275 275 275 274 273 272 272 271 271 271 271 270 270 269 269 269 269 269 269 269 268 268 268 268 267 267 267 267 267 267 267
Wind_Speed
25 22 24 23 24 24 25 24 23 19 18 19 21 24 24 24 25 26 24 20 35 13 13 14 19 18 17 16 2 2 5 1 1 2 3 3 2 3 3 9 7 5 6 4 3 2 6 17 8 5 4 16 18 16
23 24 24 23 24 24 24 27 22 21 22 21 20 22 26 25 26 28 23 24 19 19 8 18 31 32 30 20 12 5 1 3 9 2 3 2 2 2 2 3 3 1 5 4 6 4 4 17 16 15 17 13 15 18
24 24 23 23 24 27 26 21 22 23 25 23 21 21 27 28 27 30 31 20 21 17 17 24 33 29 25 29 22 7 3 6 6 4 1 2 1 1 2 2 2 3 8 2 2 9 10 16 13 11 13 16 14 15
25 23 22 25 27 27 24 24 25 24 22 19 22 25 23 29 30 29 30 26 26 4 4 13 19 21 24 22 22 20 10 9 7 2 2 0 1 5 1 4 3 3 5 4 5 13 17 17 14 11 11 14 13 14
21 19 22 26 25 23 26 29 31 30 28 26 22 24 25 29 31 29 29 31 29 17 3 7 16 19 11 18 21 21 17 11 3 3 2 2 3 2 2 1 3 5 4 4 3 10 13 10 10 13 14 14 13 11
15 19 24 18 20 25 27 30 28 27 28 28 27 27 25 30 31 29 13 35 33 30 6 3 6 9 17 16 22 19 21 14 5 3 2 4 6 1 1 2 6 13 13 16 4 9 13 11 12 13 15 17 10 10
15 20 15 16 20 21 25 27 26 24 23 27 29 29 28 30 37 30 8 6 36 27 4 3 2 5 15 14 15 16 17 8 5 5 4 1 2 4 1 2 6 9 11 14 11 12 10 13 10 9 8 14 8 8
15 16 11 15 18 28 19 24 23 21 26 25 29 29 27 30 32 30 9 4 30 25 4 2 3 3 17 8 7 8 8 8 8 7 4 2 5 3 3 7 9 10 7 13 11 14 10 10 13 13 9 8 11 10
15 8 10 12 16 14 17 20 12 22 30 27 32 27 32 30 16 23 15 14 32 8 4 4 2 2 9 4 5 5 4 2 3 3 3 4 3 4 4 7 10 11 10 11 11 10 9 13 12 10 8 10 9 8
7 3 7 6 12 21 23 18 23 27 32 37 33 15 7 17 26 24 18 7 8 5 4 2 3 1 1 2 3 4 4 2 3 4 1 3 3 8 9 11 10 9 9 8 9 12 11 9 8 5 7 7 5 4
3 4 4 10 10 18 28 22 26 30 35 21 6 6 40 34 22 4 4 4 5 3 6 6 4 3 2 2 2 4 2 3 2 3 4 3 3 4 11 11 8 7 7 7 5 4 4 5 6 6 4 4 2 2
4 8 5 8 7 3 6 20 13 17 5 12 25 29 21 7 4 4 3 3 4 4 3 2 3 5 3 2 1 2 3 2 3 3 2 3 3 10 12 11 9 8 7 7 6 5 5 4 3 2 4 6 8 8
11 8 5 8 12 12 19 20 39 33 37 27 7 5 1 2 3 3 6 2 3 3 3 2 2 3 3 2 1 1 3 3 6 3 3 2 10 10 9 8 7 8 6 6 8 8 9 9 7 8 9 10 12 15
9 7 10 16 20 22 23 19 12 12 8 5 4 5 3 4 4 3 2 2 3 5 7 7 5 2 2 1 1 2 2 2 3 3 2 3 12 11 9 7 7 8 7 8 10 11 12 12 13 12 11 10 11 14
11 11 10 18 16 7 9 9 10 6 6 7 7 4 3 4 10 11 7 5 4 3 2 3 4 2 1 2 2 1 2 4 4 2 2 12 11 7 7 8 8 8 8 9 8 10 11 12 14 16 16 16 16 17
8 10 10 16 13 5 5 6 14 12 7 6 8 4 6 5 6 9 11 7 5 2 3 1 2 2 3 2 4 4 3 4 2 4 13 10 10 8 8 7 8 9 10 10 10 11 11 13 15 17 17 16 16 15
10 6 13 13 9 4 4 5 7 9 6 5 5 14 12 8 8 8 9 11 8 3 2 2 3 4 2 3 3 4 3 4 12 14 13 10 9 9 9 10 9 8 10 11 13 13 15 16 16 16 18 16 14 13
8 10 14 14 14 10 13 9 7 7 7 11 5 10 16 12 9 12 11 15 6 4 4 3 5 5 4 3 2 3 11 18 15 13 11 10 11 9 8 10 10 13 15 15 16 15 14 14 15 16 14 12 11 10
9 10 11 9 9 7 6 6 7 6 7 7 9 10 10 14 15 14 15 11 15 12 7 5 5 3 3 5 8 15 14 13 13 12 10 9 10 10 11 11 10 10 11 10 11 13 11 9 10 9 8 7 8 7
18 18 13 10 8 6 6 6 6 7 4 6 11 13 9 11 15 18 19 19 15 8 8 4 4 8 10 19 18 15 8 11 16 15 12 10 9 9 9 8 11 11 11 11 9 8 8 9 8 7 5 4 4 4
16 12 10 12 14 10 7 5 6 7 10 5 10 4 9 20 20 17 14 15 14 7 5 11 16 15 15 14 12 12 15 17 16 13 12 11 9 8 8 9 10 8 5 5 7 6 4 5 3 2 2 2 1 2
11 6 5 6 6 6 7 7 10 10 6 8 5 5 5 5 7 10 15 15 8 12 11 16 12 10 12 14 14 13 12 13 14 13 11 11 11 10 8 5 4 7 7 5 4 4 3 1 1 2 2 4 5 6
8 4 6 6 6 5 4 4 3 4 3 5 5 3 4 3 5 7 7 7 7 11 12 15 16 16 16 13 12 13 10 11 11 8 7 8 7 6 7 8 6 4 4 3 2 2 2 4 3 1 2 3 5 6
3 4 5 4 5 4 4 3 4 4 4 3 3 3 3 3 6 6 3 4 8 8 7 10 12 14 10 8 11 13 10 6 7 11 9 4 3 4 3 4 4 3 2 0 1 1 1 3 5 3 2 4 4 3
3 7 5 4 4 4 4 2 2 3 3 2 3 3 0 3 3 3 2 5 9 8 7 10 11 7 8 9 7 7 10 9 4 5 7 5 3 2 4 5 3 1 2 2 1 3 1 3 4 5 6 4 5 3
6 8 5 2 2 4 3 3 3 3 3 3 2 3 2 3 4 3 2 12 10 9 10 9 7 7 9 9 6 0 3 6 4 2 1 4 4 6 4 3 2 2 1 2 2 3 2 1 3 4 5 4 5 3
4 3 5 5 4 7 5 8 9 5 4 3 2 2 3 4 3 2 10 11 12 9 8 7 9 8 4 3 1 4 5 4 2 2 4 4 2 3 6 6 5 4 3 6 5 2 3 3 2 3 2 3 6 5
5 4 4 7 9 10 4 3 3 2 2 3 5 4 3 3 2 7 9 13 10 9 10 9 7 5 5 6 5 4 5 6 6 5 4 5 8 7 5 1 3 4 5 5 5 7 5 3 2 3 3 3 5 6
4 5 8 6 8 9 10 3 2 3 2 2 4 3 4 5 11 18 13 10 8 7 8 8 8 6 5 3 1 0 1 4 6 3 2 2 3 7 9 5 0 1 4 4 1 4 7 7 6 6 5 6 7 7
3 4 6 7 4 4 7 5 7 6 6 13 13 26 25 21 15 12 14 12 10 9 7 8 6 4 3 1 5 4 4 2 3 4 4 5 5 7 7 5 2 4 3 2 4 2 2 2 3 3 2 2 3 4
6 5 6 6 5 10 21 22 24 23 22 18 16 23 17 14 14 13 12 11 10 6 6 7 7 7 7 5 3 4 3 3 2 2 3 5 5 5 5 4 4 4 4 5 5 6 5 3 2 1 3 6 9 10
4 4 7 4 5 14 8 4 6 8 5 6 6 10 12 6 5 9 10 9 11 9 9 6 4 2 3 3 4 4 3 3 2 2 3 5 5 4 4 3 3 3 2 2 3 3 3 2 6 8 8 10 10 11
17 21 17 10 6 7 6 6 4 5 5 4 4 4 5 4 5 7 14 12 13 14 9 8 6 4 2 1 1 2 2 2 2 3 3 3 4 4 4 4 3 4 2 2 2 3 3 2 3 4 6 7 7 7
Wind_Direction
284 282 282 282 289 292 292 289 285 282 267 270 244 235 228 220 215 215 225 225 209 233 243 237 242 252 266 274 238 265 76 89 4 167 188 235 239 263 322 230 162 155 167 187 192 234 255 341 69 52 277 29 24 15
280 283 279 282 290 291 286 286 275 273 269 269 244 233 225 221 215 212 214 229 226 221 251 247 242 247 252 265 269 246 144 150 213 182 235 297 327 339 161 299 101 93 192 172 175 179 118 66 89 47 47 46 20 14
284 282 281 288 290 288 289 279 277 273 267 259 245 233 226 218 215 210 211 210 203 223 260 263 255 254 248 238 233 198 227 242 211 257 63 249 289 19 319 287 102 49 10 322 78 130 109 104 87 63 43 35 29 28
286 286 284 289 293 289 279 280 276 273 264 254 242 231 224 211 211 207 207 204 204 176 235 273 275 256 241 229 237 210 226 208 257 239 97 4 275 23 309 277 91 10 352 313 95 98 93 63 59 56 46 39 34 40
289 286 290 294 293 286 288 286 281 272 259 250 239 227 220 211 203 207 210 214 214 196 272 275 287 240 244 213 213 226 227 243 193 97 86 248 280 119 198 266 52 13 26 336 66 332 95 86 49 40 32 36 30 21
284 292 299 300 297 295 292 287 282 263 251 238 227 216 210 198 191 190 190 217 219 221 271 292 304 254 226 217 214 222 222 216 176 132 237 271 207 242 314 101 51 41 66 55 38 339 71 92 56 33 32 34 55 19
296 298 301 297 304 310 302 290 278 253 234 221 213 201 198 191 192 179 170 211 204 203 234 279 287 278 196 194 205 208 203 186 154 177 200 247 319 25 216 89 64 31 36 35 32 25 47 38 60 41 29 49 49 33
298 298 295 308 326 326 332 321 292 238 204 196 189 184 185 182 186 179 145 149 174 184 222 248 239 265 185 171 157 167 156 144 180 193 215 208 151 103 90 89 62 29 17 29 38 20 52 65 47 33 16 51 42 37
300 282 301 313 328 34 12 11 58 144 158 160 160 164 159 166 148 179 178 158 166 167 213 203 223 187 177 133 111 121 129 138 182 185 219 148 65 44 67 72 60 40 29 2 1 30 43 39 27 28 19 30 46 34
293 324 330 334 359 79 70 71 100 121 136 142 152 139 115 132 147 134 133 133 163 231 236 242 160 146 143 94 102 122 146 149 187 219 138 70 81 88 84 80 72 49 33 18 24 23 23 27 22 55 54 21 17 20
238 139 81 31 16 112 116 111 120 128 132 121 86 90 127 134 137 109 119 136 158 218 217 222 202 143 124 97 143 182 169 162 158 214 177 102 91 80 91 83 72 43 31 40 43 24 34 49 62 88 57 26 30 52
143 141 75 39 46 58 85 124 128 135 101 125 124 118 112 114 135 142 167 175 184 208 44 77 75 101 96 130 96 192 128 74 190 142 131 87 90 80 74 77 59 39 39 38 27 16 10 74 73 62 75 79 86 93
154 112 102 97 83 93 114 113 110 99 114 113 89 70 81 38 102 114 165 206 103 25 47 72 71 90 96 67 15 258 145 177 135 59 78 70 102 82 72 66 45 34 41 38 39 41 53 79 79 80 88 93 104 108
86 93 103 127 121 107 106 117 112 122 159 80 69 45 50 36 55 34 22 35 46 48 58 62 65 84 84 100 331 99 21 127 154 104 86 96 96 92 80 68 53 64 64 61 66 72 78 79 84 90 99 105 113 110
76 84 114 147 161 139 125 81 82 136 68 60 35 54 68 90 61 34 43 81 39 103 43 102 86 86 32 92 13 118 40 65 35 70 79 93 98 89 83 76 74 75 72 71 84 86 92 98 99 99 102 109 113 117
89 73 119 148 166 160 112 58 48 56 63 59 42 57 1 89 41 28 26 24 24 52 183 143 109 83 49 50 50 21 8 49 40 89 113 113 102 92 89 92 87 79 77 87 91 98 101 101 105 106 107 107 108 110
91 70 131 117 129 160 148 107 58 56 59 53 44 40 64 64 51 24 18 355 358 324 51 53 61 28 102 70 54 14 33 99 101 94 101 104 111 111 104 97 96 103 107 104 100 96 97 101 107 110 105 105 106 104
112 115 110 120 116 110 89 54 74 72 64 55 75 67 69 66 49 26 23 24 58 61 53 55 55 39 32 49 81 98 87 96 105 108 109 110 115 113 113 107 99 100 97 97 94 92 94 100 99 95 95 96 96 92
121 136 129 121 126 89 68 56 62 85 75 93 97 85 75 65 53 54 53 51 69 90 76 61 58 45 23 56 110 118 122 122 117 113 112 107 113 119 119 121 122 121 120 118 118 118 116 98 90 91 88 83 80 75
117 112 108 105 96 88 86 77 74 86 88 106 88 72 66 66 59 57 57 57 70 63 51 44 47 34 44 65 89 89 121 131 123 116 107 94 96 120 106 99 107 111 108 106 109 117 126 126 128 129 128 120 115 111
104 96 92 95 70 77 84 89 76 106 123 112 150 133 103 60 54 46 41 43 55 42 69 89 85 79 84 86 86 83 72 114 144 129 126 118 112 118 118 110 129 138 135 148 152 132 136 129 136 150 195 203 175 135
115 100 97 69 78 72 72 49 111 118 96 135 123 80 99 65 55 46 47 46 63 38 61 98 91 92 94 84 84 84 87 101 109 113 121 125 118 108 103 112 153 139 134 137 150 146 134 101 57 80 127 92 107 126
126 103 65 55 80 70 100 104 91 113 105 131 120 81 62 63 80 72 75 52 76 78 88 94 93 96 96 96 96 88 87 94 90 87 95 106 115 127 134 117 128 129 141 145 214 243 198 161 173 329 35 57 113 119
94 63 54 60 73 95 97 64 76 74 78 78 75 66 47 75 100 75 77 76 115 109 111 119 115 113 103 101 99 84 96 88 111 96 96 83 88 101 109 124 146 138 75 36 312 352 247 194 136 137 105 105 94 107
99 15 49 44 95 92 86 64 42 66 90 89 78 62 36 82 73 79 98 127 125 119 97 88 103 110 105 95 98 116 103 95 98 123 110 104 115 63 57 65 66 186 125 206 349 335 271 197 199 190 192 191 186 211
72 17 36 45 10 95 135 112 111 106 89 71 82 123 98 72 69 77 83 139 137 130 120 116 137 142 113 132 148 253 159 149 150 209 118 208 172 132 129 220 211 77 223 218 345 354 2 229 236 204 217 218 186 176
79 38 32 35 84 98 81 64 68 75 87 108 156 124 93 77 95 107 114 147 152 153 158 137 114 142 148 154 128 77 95 155 216 329 21 34 11 257 233 237 253 293 313 221 204 237 321 356 115 94 28 52 193 226
67 51 90 26 58 42 85 58 58 82 96 88 69 54 99 121 134 144 151 156 173 185 180 170 168 171 152 119 100 92 104 95 65 51 38 27 22 28 13 277 244 258 280 253 232 235 236 218 195 200 236 281 305 314
69 95 87 33 58 49 29 43 83 52 26 55 105 93 96 73 132 132 146 156 148 137 133 143 142 158 160 169 198 318 198 176 159 123 10 247 297 350 353 349 340 68 50 36 14 244 234 236 238 237 257 272 279 306
89 83 93 55 61 51 31 52 87 96 106 117 103 109 101 106 113 125 128 129 147 156 147 133 121 129 97 343 18 53 71 109 205 220 205 218 275 290 296 306 357 180 195 291 320 29 80 164 186 197 251 314 286 283
104 96 82 68 84 96 96 99 98 96 96 101 115 113 121 125 133 137 155 166 175 191 173 162 166 173 183 196 252 311 12 4 340 273 270 276 289 300 296 291 279 259 243 222 241 251 263 285 191 190 273 270 277 286
60 94 120 103 130 155 152 110 87 88 91 76 93 111 111 105 106 164 171 155 145 158 163 189 212 204 215 239 247 275 303 339 346 316 305 318 340 327 311 296 272 283 296 278 254 258 276 265 228 238 253 270 282 289
87 94 102 100 130 179 172 143 108 97 78 76 89 106 103 112 126 164 171 174 185 209 215 215 226 241 248 255 10 357 354 356 352 347 338 329 324 324 337 352 4 14 349 297 288 314 311 316 313 308 296 304 320 324